Keene, NH

11:05 AM EDT on September 15, 2019 (GMT -0400)
Dillant-Hopkins

Weather History for KEEN - August, 2019

Change the Weather History Date:

Saturday, August 24, 2019

  Actual Average Record
Temperature  
Mean Temperature 60 °F -  
Max Temperature 73 °F 78 °F 94 °F (1947)
Min Temperature 46 °F 51 °F 34 °F (1952)
Degree Days  
Heating Degree Days 6    
Growing Degree Days 10 (Base 50)    
Moisture  
Dew Point 50 °F    
Average Humidity 90    
Maximum Humidity 100    
Minimum Humidity 50    
Precipitation  
Precipitation 0.00 in - - ()
Sea Level Pressure  
Sea Level Pressure 30.18 in    
Wind  
Wind Speed 2 mph (WSW)    
Max Wind Speed 12 mph    
Max Gust Speed 18 mph    
Visibility 4 miles    
Events Fog    
Averages and records for this station are not official NWS values.
T = Trace of Precipitation, MM = Missing Value Source: NWS Daily Summary

Daily Weather History Graph

Daily Weather History Graph

Search for Another Location

Airport or City:

Astronomy

Aug. 24, 2019 Rise Set
Actual Time 6:04 AM EDT 7:37 PM EDT
Civil Twilight 5:34 AM EDT 8:07 PM EDT
Nautical Twilight 4:58 AM EDT 8:43 PM EDT
Astronomical Twilight 4:20 AM EDT 9:21 PM EDT
Moon No Moon Rise 2:54 PM EDT (8/24)
Length of Visible Light 14h 32m
Length of Day
13h 32m
Last Quarter, 39% of the Moon is Illuminated
Aug 24
Last Quarter
Aug 30
New
Sep 5
First Quarter
Sep 14
Full
Sep 21
Last Quarter

Hourly Weather History & Observations

Time (EDT) Temp. Windchill Dew Point Humidity Pressure Visibility Wind Dir Wind Speed Gust Speed Precip Events Conditions
12:56 AM 51.1 °F - 51.1 °F 100% 30.12 in 10.0 mi Calm Calm - N/A   Clear
1:56 AM 50.0 °F - 48.9 °F 96% 30.13 in 5.0 mi Calm Calm - N/A   Clear
2:32 AM 48.2 °F - 48.2 °F 100% 30.12 in 1.5 mi Calm Calm - N/A   Clear
2:36 AM 48.2 °F - 48.2 °F 100% 30.12 in 0.8 mi Calm Calm - N/A   Clear
2:41 AM 48.2 °F - 48.2 °F 100% 30.13 in 1.2 mi Calm Calm - N/A   Clear
2:44 AM 50.0 °F - 48.2 °F 94% 30.12 in 4.0 mi Calm Calm - N/A   Clear
2:56 AM 48.9 °F - 48.9 °F 100% 30.14 in 10.0 mi Calm Calm - N/A   Clear
3:07 AM 48.2 °F - 48.2 °F 100% 30.13 in 1.5 mi Calm Calm - N/A   Clear
3:14 AM 48.2 °F - 48.2 °F 100% 30.13 in 0.8 mi Calm Calm - N/A   Mist
3:36 AM 48.2 °F - 48.2 °F 100% 30.13 in 1.2 mi Calm Calm - N/A   Partly Cloudy
3:42 AM 48.2 °F - 48.2 °F 100% 30.13 in 4.0 mi Calm Calm - N/A   Partly Cloudy
3:50 AM 48.2 °F - 48.2 °F 100% 30.12 in 1.8 mi Calm Calm - N/A   Clear
3:56 AM 46.9 °F - 46.9 °F 100% 30.14 in 1.8 mi Calm Calm - N/A   Clear
4:04 AM 46.4 °F - 46.4 °F 100% 30.13 in 0.8 mi Calm Calm - N/A   Clear
4:16 AM 46.4 °F 45.2 °F 46.4 °F 100% 30.13 in 1.2 mi SSW 3.5 mph - N/A   Clear
4:29 AM 46.4 °F 43.5 °F 46.4 °F 100% 30.13 in 0.8 mi SSW 5.8 mph - N/A   Mist
4:37 AM 46.4 °F 44.3 °F 44.6 °F 93% 30.13 in 0.5 mi South 4.6 mph - N/A Fog Fog
4:44 AM 46.4 °F 45.2 °F 46.4 °F 100% 30.14 in 0.2 mi South 3.5 mph - N/A Fog Fog
4:51 AM 46.4 °F 44.3 °F 46.4 °F 100% 30.14 in 0.5 mi SSW 4.6 mph - N/A Fog Fog
4:56 AM 46.9 °F - 46.9 °F 100% 30.15 in 0.5 mi SSW 3.5 mph - N/A Fog Fog
5:18 AM 46.4 °F - 46.4 °F 100% 30.14 in 0.5 mi Calm Calm - N/A Fog Fog
5:29 AM 46.4 °F - 46.4 °F 100% 30.14 in 1.0 mi Calm Calm - N/A   Overcast
5:40 AM 46.4 °F - 46.4 °F 100% 30.15 in 0.5 mi Calm Calm - N/A Fog Fog
5:50 AM 46.4 °F 45.2 °F 46.4 °F 100% 30.15 in 1.0 mi SSW 3.5 mph - N/A   Overcast
5:51 AM 46.9 °F - 46.9 °F 100% 30.17 in 1.0 mi Calm Calm - N/A   Overcast
6:00 AM 46.4 °F 45.2 °F 46.4 °F 100% 30.15 in 0.5 mi SW 3.5 mph - N/A Fog Fog
6:09 AM 46.4 °F - 46.4 °F 100% 30.16 in 0.2 mi Calm Calm - N/A Fog Fog
6:56 AM 46.9 °F - 46.9 °F 100% 30.19 in 0.2 mi Calm Calm - N/A Fog Fog
7:39 AM 48.2 °F - 48.2 °F 100% 30.19 in 0.5 mi Calm Calm - N/A Fog Fog
7:54 AM 48.2 °F - 48.2 °F 100% 30.19 in 0.2 mi SW 4.6 mph - N/A Fog Fog
7:56 AM 48.9 °F - 48.9 °F 100% 30.21 in 0.2 mi SW 3.5 mph - N/A Fog Fog
8:07 AM 48.2 °F - 48.2 °F 100% 30.19 in 0.8 mi Calm Calm - N/A   Overcast
8:09 AM 48.2 °F - 48.2 °F 100% 30.19 in 1.2 mi Calm Calm - N/A   Overcast
8:16 AM 50.0 °F - 50.0 °F 100% 30.19 in 3.0 mi SW 3.5 mph - N/A   Overcast
8:40 AM 53.6 °F - 51.8 °F 94% 30.19 in 10.0 mi SSW 5.8 mph - N/A   Scattered Clouds
8:56 AM 55.0 °F - 51.1 °F 86% 30.21 in 10.0 mi Variable 3.5 mph - N/A   Clear
9:56 AM 62.1 °F - 52.0 °F 70% 30.21 in 10.0 mi NNW 8.1 mph - N/A   Clear
10:56 AM 66.0 °F - 53.1 °F 63% 30.20 in 10.0 mi NW 8.1 mph - N/A   Scattered Clouds
11:56 AM 70.0 °F - 53.1 °F 55% 30.20 in 10.0 mi NNW 10.4 mph - N/A   Mostly Cloudy
12:56 PM 70.0 °F - 53.1 °F 55% 30.19 in 10.0 mi NNW 9.2 mph 18.4 mph N/A   Mostly Cloudy
1:56 PM 71.1 °F - 54.0 °F 55% 30.20 in 10.0 mi North 5.8 mph - N/A   Overcast
2:56 PM 73.0 °F - 54.0 °F 51% 30.20 in 9.0 mi NNW 9.2 mph - N/A   Mostly Cloudy
3:56 PM 73.9 °F - 54.0 °F 50% 30.20 in 9.0 mi North 11.5 mph - N/A   Mostly Cloudy
4:56 PM 73.0 °F - 55.0 °F 53% 30.21 in 10.0 mi North 10.4 mph - N/A   Mostly Cloudy
5:56 PM 72.0 °F - 55.9 °F 57% 30.22 in 10.0 mi North 9.2 mph - N/A   Overcast
7:56 PM 66.0 °F - 59.0 °F 78% 30.26 in 10.0 mi Calm Calm - N/A   Overcast
8:56 PM 66.0 °F - 59.0 °F 78% 30.29 in 8.0 mi Calm Calm - N/A   Overcast
9:56 PM 64.9 °F - 57.0 °F 75% 30.31 in 10.0 mi Calm Calm - N/A   Overcast
10:56 PM 63.0 °F - 57.0 °F 81% 30.33 in 10.0 mi Calm Calm - N/A   Overcast
11:56 PM 57.9 °F - 55.9 °F 93% 30.34 in 10.0 mi Calm Calm - N/A   Mostly Cloudy